Location: Unspecified
(39.4168°N, 0.0000°E)
Time: 02:21:30
(UTC+00:00)

CAS-6 - Visible Passes

Search period start: 05 April 2026 00:00
Search period end: 15 April 2026 00:00
Orbit: 600 x 619 km, 97.8° (Epoch: 29 March)

Date Brightness Start Highest point End Pass type
(mag) Time Alt. Az. Time Alt. Az. Time Alt. Az.
5 Apr ? 21:25:21 14° N 21:25:21 14° N 21:26:07 10° N visible
6 Apr ? 21:39:21 16° N 21:39:21 16° N 21:40:14 10° N visible
7 Apr ? 21:53:19 16° N 21:53:19 16° N 21:54:15 10° N visible
8 Apr ? 22:07:17 16° NNW 22:07:17 16° NNW 22:08:10 10° NNW visible
9 Apr ? 20:44:20 11° NE 20:44:20 11° NE 20:44:33 10° NNE visible
9 Apr ? 22:21:15 15° NNW 22:21:15 15° NNW 22:22:00 10° NNW visible
10 Apr ? 20:58:18 14° NNE 20:58:18 14° NNE 20:59:11 10° NNE visible
10 Apr ? 22:35:14 13° NW 22:35:14 13° NW 22:35:44 10° NNW visible
11 Apr ? 21:12:17 17° NNE 21:12:17 17° NNE 21:13:32 10° NNE visible
11 Apr ? 22:49:13 10° NW 22:49:13 10° NW 22:49:18 10° NW visible
12 Apr ? 21:26:15 20° NNE 21:26:15 20° NNE 21:27:44 10° N visible
13 Apr ? 21:40:13 22° N 21:40:13 22° N 21:41:49 10° N visible
14 Apr ? 21:54:12 22° N 21:54:12 22° N 21:55:48 10° N visible
